Regional Weather Roundup
Issued by NWS

Home | Current Version | Previous Version | Graphics & Text | Print | Product List | Glossary On
Versions: 1 2 3 4 5 6 7 8 9 10 11 12 13 14 15 16 17 18 19 20 21 22 23 24 25 26 27 28 29 30 31 32 33 34 35 36 37 38 39 40 41 42 43 44 45 46 47 48 49 50
028
ASUS45 KTFX 180610
RWRMT
MONTANA REGIONAL WEATHER ROUNDUP
NATIONAL WEATHER SERVICE GREAT FALLS MT
1100 PM MST SUN DEC 17 2017

NOTE: "FAIR" INDICATES FEW OR NO CLOUDS BELOW 12000 FEET WITH NO
SIGNIFICANT WEATHER AND/OR OBSTRUCTIONS TO VISIBILITY.

MTZ001>007-043-180700-
WEST OF THE DIVIDE

CITY           SKY/WX    TMP DP  RH WIND       PRES   REMARKS
KALISPELL      LGT SNOW  33  31  92 S9        29.84F FOG     WCI  25
MISSOULA       CLOUDY    26  21  81 N3        29.94F
BUTTE          CLOUDY    27  21  78 CALM      29.93F
MULLAN PASS    SNOW      28  24  85 SW8G20    29.83S VSB 1/2 WCI  20
ANACONDA         N/A     34  21  60 S20G31    29.89F WCI  22
DEER LODGE       N/A     34  25  69 S10       29.90F WCI  26
EUREKA           N/A     34  28  80 MISG      29.79F
HAMILTON         N/A     37  25  60 S16       29.93F WCI  28
LIBBY            N/A     28  28 100 NE3       29.80F
RONAN            N/A     37  28  70 SE13      29.92F WCI  29
$$

MTZ008-052>055-180700-
SOUTHWEST MONTANA

CITY           SKY/WX    TMP DP  RH WIND       PRES   REMARKS
BOZEMAN        MOCLDY    21  17  84 CALM      29.95S
DILLON         MOCLDY    24  17  74 S9        29.98F WCI  14
W YELLOWSTONE  CLOUDY    16  14  93 SW10G17   30.11S WCI   3
ENNIS          CLOUDY    25  18  74 S26       30.05S WCI   9
THREE FORKS      N/A     31  23  72 SW18      29.93F WCI  19
$$

MTZ009-010-012-014-046-048-049-054-180700-
EAST SLOPES AND CENTRAL MONTANA

CITY           SKY/WX    TMP DP  RH WIND       PRES   REMARKS
CUT BANK       FAIR      36  25  64 SW36G45   29.61F WCI  22
GREAT FALLS    FAIR      38  23  55 SW30G46   29.73F WCI  26
MALMSTROM AFB  MOCLDY    39  25  56 SW35G41   29.72F WCI  27
HELENA         CLOUDY    28  23  81 CALM      29.90F
BOWMANS CRNR   FAIR      33  23  68 SW35G47   29.72F WCI  18
CHOTEAU          N/A     34  23  64 SE12      29.70F WCI  25
FAIRFIELD      MOCLDY    34  23  62 S31G40    29.69F WCI  21
POWER          MOCLDY    35  24  62 SW26G36   29.70F WCI  23
RAYNESFORD     CLOUDY    42  25  52 SW14      29.74F
ULM            MOCLDY    41  24  51 SW26G36   29.76F
$$

MTZ011-013-016-021-045-047-050-051-180700-
NORTH CENTRAL MONTANA

CITY           SKY/WX    TMP DP  RH WIND       PRES   REMARKS
HAVRE          FLURRIES  38  26  62 SW20G30   29.69S WCI  28
LEWISTOWN      CLOUDY    36  25  64 SW18      29.73F WCI  26
N BAR RANCH    FAIR      36  16  44 W5G14     29.74S
CHINOOK          N/A     41  25  52 SW22      29.67S
DENTON         MOCLDY    41  24  49 SW20      29.68F
GEYSER         MOCLDY    39  25  56 W20G26    29.68F WCI  30
GRASS RANGE    FAIR      38  23  54 SW20      29.68F WCI  27
STANFORD       MOCLDY    41  26  56 W20       29.70S
WINIFRED       MOCLDY    37  23  56 W13       29.69F WCI  29
$$

MTZ017>020-022>027-061-062-180700-
NORTHEAST MONTANA

CITY           SKY/WX    TMP DP  RH WIND       PRES   REMARKS
GLASGOW        FAIR      34  22  61 W12       29.66F WCI  25
GLENDIVE       CLOUDY    36  21  54 S7        29.73S WCI  30
JORDAN           N/A     34  21  59 W14       29.71F WCI  25
SIDNEY         MOCLDY    39  22  50 SW10      29.68F
WOLF POINT     FAIR      31  21  66 W8        29.68F WCI  23
MALTA          CLEAR     28  21  74 SW8       29.67F WCI  20
PLENTYWOOD       N/A     36  25  64 W10       29.62R WCI  28
POPLAR           N/A     32  21  64 CALM      29.68S
$$

MTZ028>42-056>058-180700-
SOUTHCENTRAL AND SOUTHEAST MONTANA

CITY           SKY/WX    TMP DP  RH WIND       PRES   REMARKS
BAKER          MOCLDY    33  22  63 W14       29.76S WCI  23
BILLINGS       FAIR      32  23  69 SW23G35   29.81F WCI  19
LIVINGSTON     LGT SNOW  30  21  69 SW39G51   29.87R WCI  13
MILES CITY     FAIR      33  22  63 SW12      29.77F WCI  24
BIG TIMBER     PTCLDY    32  19  59 W38       29.87S WCI  16
FORSYTH          N/A     37  21  52 SW7       29.79S
HARLOWTON      MOCLDY    34  25  68 W41G47    29.73F WCI  19
LAUREL           N/A     30  23  74 SW18      29.84F WCI  18
ROUNDUP          N/A     37  19  48 SW18      29.70F WCI  27
$$

REGIONAL REPORTS...DAKOTAS

CITY           SKY/WX    TMP DP  RH WIND       PRES   REMARKS
WILLISTON      MOCLDY    33  24  69 SW9       29.65F WCI  25
MINOT          FAIR      33  22  63 S9        29.62F WCI  25
DICKINSON      CLOUDY    34  19  54 W15       29.68F WCI  24
BEACH          CLOUDY    32  19  59 W14       29.75S WCI  22
CROSBY         CLOUDY    30  27  86 SW10      29.61S WCI  21
TIOGA          FAIR      30  27  86 SW14      29.63F WCI  20
BISMARCK       CLOUDY    35  25  66 SW6       29.72F WCI  30
GRAND FORKS    CLOUDY    29  25  85 S18       29.70F WCI  16
FARGO          CLOUDY    30  28  92 S13       29.78F WCI  20
BUFFALO SD       N/A     31  22  69 W16       29.71F WCI  20
RAPID CITY     FAIR      27  16  63 SW3       29.85F
$$

REGIONAL REPORTS...WYOMING/IDAHO/WASHINGTON

CITY           SKY/WX    TMP DP  RH WIND       PRES   REMARKS
GILLETTE       FAIR      28  15  58 S12       29.85F WCI  18
SHERIDAN       FAIR      19  16  88 S6        29.83F WCI  11
BUFFALO WY     FAIR      31  13  47 CALM      29.85F
CODY           FAIR      35  18  49 VRB5G20   29.90F
YELLOWSTONE LA   N/A     13  11  92 CALM      30.10R
IDAHO FALLS    CLOUDY    21  20  96 CALM      30.23R
SALMON         CLOUDY    23  15  71 CALM      30.14F
BOISE          CLOUDY    35  24  64 S7        30.23S WCI  29
SPOKANE        CLOUDY    34  33  96 S14       29.88F WCI  25
$$

REGIONAL REPORTS...ALBERTA

CITY           SKY/WX    TMP DP  RH WIND       PRES   REMARKS
EDMONTON       CLEAR     28  14  54 SW9       29.51R WCI  20
CALGARY        MOCLDY    37  18  44 NW14      29.52  WCI  29
LETHBRIDGE     MOCLDY    34  23  64 W15       29.57  WCI  24
MEDICINE HAT   CLOUDY    41  27  56 SW12G22   29.57F
$$

REGIONAL REPORTS...SASKATCHEWAN

CITY           SKY/WX    TMP DP  RH WIND       PRES   REMARKS
SWIFT CURRENT  CLOUDY    32  23  69 W15G22    29.56F WCI  22
REGINA         PTCLDY    28  27  93 W12       29.52S WCI  18
SASKATOON      PTCLDY    25  21  86 SW13      29.47S WCI  13
$$




USA.gov is the U.S. government's official web portal to all federal, state and local government web resources and services.